Time,TemperatureF,DewpointF,PressureIn,WindDirection,WindDirectionDegrees,WindSpeedMPH,WindSpeedGustMPH,Humidity,HourlyPrecipIn,Conditions,Clouds,dailyrainin,SoftwareType,DateUTC
2013-05-23 00:01:00,57.7,57.2,29.54,SW,232,0.0,0.0,98,0.00,,,0.00,VWS V14.00,2013-05-23 04:01:00,
2013-05-23 00:02:00,57.7,57.2,29.54,SW,232,0.0,0.0,98,0.00,,,0.00,VWS V14.00,2013-05-23 04:02:00,
2013-05-23 00:03:00,57.7,57.2,29.54,SW,232,0.0,0.0,98,0.00,,,0.00,VWS V14.00,2013-05-23 04:03:00,
2013-05-23 00:04:00,57.7,57.2,29.54,SW,232,0.0,0.0,98,0.00,,,0.00,VWS V14.00,2013-05-23 04:04:00,
2013-05-23 00:06:00,57.7,57.2,29.54,SW,214,2.7,2.7,98,0.00,,,0.00,VWS V14.00,2013-05-23 04:06:00,
2013-05-23 00:12:00,57.7,57.2,29.54,SW,235,2.7,2.7,98,0.00,,,0.00,VWS V14.00,2013-05-23 04:12:00,
2013-05-23 00:17:00,57.7,57.2,29.54,SSW,213,0.0,0.0,98,0.00,,,0.00,VWS V14.00,2013-05-23 04:17:00,
2013-05-23 00:23:00,57.6,57.0,29.54,SSW,213,0.0,0.0,98,0.00,,,0.00,VWS V14.00,2013-05-23 04:23:00,
2013-05-23 00:28:00,57.6,57.0,29.54,SW,224,3.1,3.1,98,0.00,,,0.00,VWS V14.00,2013-05-23 04:28:00,
2013-05-23 00:34:00,57.6,57.0,29.54,SSW,212,2.7,2.7,98,0.00,,,0.00,VWS V14.00,2013-05-23 04:34:00,
2013-05-23 00:39:00,57.4,56.8,29.54,SSW,209,0.0,3.1,98,0.00,,,0.00,VWS V14.00,2013-05-23 04:39:00,
2013-05-23 00:45:00,57.2,56.6,29.54,SW,233,0.0,0.0,98,0.00,,,0.00,VWS V14.00,2013-05-23 04:45:00,
2013-05-23 00:51:00,57.2,56.6,29.54,WSW,239,0.0,2.2,98,0.00,,,0.00,VWS V14.00,2013-05-23 04:51:00,
2013-05-23 00:56:00,57.2,56.6,29.54,WNW,289,0.0,0.0,98,0.00,,,0.00,VWS V14.00,2013-05-23 04:56:00,
2013-05-23 01:02:00,57.0,56.5,29.57,West,271,0.0,0.0,98,0.00,,,0.00,VWS V14.00,2013-05-23 05:02:00,
2013-05-23 01:07:00,57.0,56.5,29.57,SW,225,3.1,3.1,98,0.00,,,0.00,VWS V14.00,2013-05-23 05:07:00,
2013-05-23 01:13:00,57.0,56.5,29.57,West,266,0.0,0.0,98,0.00,,,0.00,VWS V14.00,2013-05-23 05:13:00,
2013-05-23 01:19:00,56.8,56.3,29.57,West,260,0.0,0.0,98,0.00,,,0.00,VWS V14.00,2013-05-23 05:19:00,
2013-05-23 01:24:00,56.8,56.3,29.57,SW,226,0.0,0.0,98,0.00,,,0.00,VWS V14.00,2013-05-23 05:24:00,
2013-05-23 01:29:00,56.7,56.1,29.57,SW,221,0.0,0.0,98,0.00,,,0.00,VWS V14.00,2013-05-23 05:29:00,
2013-05-23 01:34:00,56.7,56.1,29.57,WNW,282,4.0,4.0,98,0.00,,,0.00,VWS V14.00,2013-05-23 05:34:00,
2013-05-23 01:39:00,56.3,55.8,29.57,SW,235,0.0,0.0,98,0.00,,,0.00,VWS V14.00,2013-05-23 05:39:00,
2013-05-23 01:45:00,56.1,55.6,29.57,SSW,211,2.2,2.2,98,0.00,,,0.00,VWS V14.00,2013-05-23 05:45:00,
2013-05-23 01:51:00,56.1,55.6,29.57,SSW,212,0.0,0.0,98,0.00,,,0.00,VWS V14.00,2013-05-23 05:51:00,
2013-05-23 01:56:00,55.9,55.4,29.57,SW,219,0.0,0.0,98,0.00,,,0.00,VWS V14.00,2013-05-23 05:56:00,
2013-05-23 02:02:00,55.8,55.2,29.57,SW,215,2.7,2.7,98,0.00,,,0.00,VWS V14.00,2013-05-23 06:02:00,
2013-05-23 02:07:00,55.6,55.0,29.57,SSW,197,2.2,4.0,98,0.00,,,0.00,VWS V14.00,2013-05-23 06:07:00,
2013-05-23 02:13:00,55.6,55.0,29.57,SW,219,2.7,2.7,98,0.00,,,0.00,VWS V14.00,2013-05-23 06:13:00,
2013-05-23 02:18:00,55.2,54.7,29.54,SSW,194,5.4,5.4,98,0.00,,,0.00,VWS V14.00,2013-05-23 06:18:00,
2013-05-23 02:23:00,55.2,54.7,29.54,South,185,2.7,2.7,98,0.00,,,0.00,VWS V14.00,2013-05-23 06:23:00,
2013-05-23 02:29:00,55.0,54.5,29.54,SSW,192,2.7,2.7,98,0.00,,,0.00,VWS V14.00,2013-05-23 06:29:00,
2013-05-23 02:34:00,54.9,54.3,29.54,SSW,209,2.7,2.7,98,0.00,,,0.00,VWS V14.00,2013-05-23 06:34:00,
2013-05-23 02:39:00,54.7,54.1,29.54,South,179,2.2,2.7,98,0.00,,,0.00,VWS V14.00,2013-05-23 06:39:00,
2013-05-23 02:45:00,54.7,54.1,29.54,SSW,202,4.0,4.0,98,0.00,,,0.00,VWS V14.00,2013-05-23 06:45:00,
2013-05-23 02:50:00,54.7,54.1,29.54,South,191,4.0,4.0,98,0.00,,,0.00,VWS V14.00,2013-05-23 06:50:00,
2013-05-23 02:55:00,54.5,54.0,29.54,SSW,195,2.7,4.0,98,0.00,,,0.00,VWS V14.00,2013-05-23 06:55:00,
2013-05-23 03:01:00,54.5,54.0,29.57,SSW,200,3.6,3.6,98,0.00,,,0.00,VWS V14.00,2013-05-23 07:01:00,
2013-05-23 03:06:00,54.5,54.0,29.57,SSW,209,4.0,4.0,98,0.00,,,0.00,VWS V14.00,2013-05-23 07:06:00,
2013-05-23 03:12:00,54.5,54.0,29.57,SSW,198,0.0,0.0,98,0.00,,,0.00,VWS V14.00,2013-05-23 07:12:00,
2013-05-23 03:18:00,54.5,54.0,29.54,SSW,196,2.2,2.2,98,0.00,,,0.00,VWS V14.00,2013-05-23 07:18:00,
2013-05-23 03:23:00,54.7,54.1,29.54,SSE,156,0.0,2.2,98,0.00,,,0.00,VWS V14.00,2013-05-23 07:23:00,
2013-05-23 03:28:00,54.7,54.1,29.54,SSW,194,0.0,0.0,98,0.00,,,0.00,VWS V14.00,2013-05-23 07:28:00,
2013-05-23 03:33:00,54.7,54.1,29.54,SSW,194,0.0,0.0,98,0.00,,,0.00,VWS V14.00,2013-05-23 07:33:00,
2013-05-23 03:38:00,54.7,54.1,29.54,West,260,2.2,2.2,98,0.00,,,0.00,VWS V14.00,2013-05-23 07:38:00,
2013-05-23 03:44:00,54.7,54.1,29.57,WSW,255,0.0,0.0,98,0.00,,,0.00,VWS V14.00,2013-05-23 07:44:00,
2013-05-23 03:50:00,54.7,54.1,29.57,SSW,210,4.0,4.0,98,0.00,,,0.00,VWS V14.00,2013-05-23 07:50:00,
2013-05-23 03:55:00,54.7,54.1,29.57,SSW,210,0.0,0.0,98,0.00,,,0.00,VWS V14.00,2013-05-23 07:55:00,
2013-05-23 04:00:00,54.7,54.1,29.57,SSW,208,3.1,3.1,98,0.00,,,0.00,VWS V14.00,2013-05-23 08:00:00,
2013-05-23 04:06:00,54.7,54.1,29.57,SW,218,3.6,3.6,98,0.00,,,0.00,VWS V14.00,2013-05-23 08:06:00,
2013-05-23 04:12:00,54.7,54.1,29.54,SW,221,3.1,3.1,98,0.00,,,0.00,VWS V14.00,2013-05-23 08:12:00,
2013-05-23 04:18:00,54.5,54.0,29.54,SSW,211,0.0,0.0,98,0.00,,,0.00,VWS V14.00,2013-05-23 08:18:00,
2013-05-23 04:23:00,54.5,54.0,29.54,SSW,200,4.0,4.0,98,0.00,,,0.00,VWS V14.00,2013-05-23 08:23:00,
2013-05-23 04:29:00,54.5,54.0,29.54,SW,218,2.7,4.0,98,0.00,,,0.00,VWS V14.00,2013-05-23 08:29:00,
2013-05-23 04:34:00,54.5,54.0,29.57,SW,216,3.1,3.1,98,0.00,,,0.00,VWS V14.00,2013-05-23 08:34:00,
2013-05-23 04:39:00,54.5,54.0,29.57,SSW,211,4.0,4.0,98,0.00,,,0.00,VWS V14.00,2013-05-23 08:39:00,
2013-05-23 04:44:00,54.5,54.0,29.57,SW,232,3.6,3.6,98,0.00,,,0.00,VWS V14.00,2013-05-23 08:44:00,
2013-05-23 04:49:00,54.5,54.0,29.57,SW,233,0.0,0.0,98,0.00,,,0.00,VWS V14.00,2013-05-23 08:49:00,
2013-05-23 04:54:00,54.3,53.8,29.57,SW,227,0.0,2.7,98,0.00,,,0.00,VWS V14.00,2013-05-23 08:54:00,
2013-05-23 04:59:00,54.1,53.6,29.57,SW,229,3.1,3.6,98,0.00,,,0.00,VWS V14.00,2013-05-23 08:59:00,
2013-05-23 05:05:00,54.1,53.6,29.57,SW,223,2.7,2.7,98,0.00,,,0.00,VWS V14.00,2013-05-23 09:05:00,
2013-05-23 05:11:00,54.0,53.4,29.57,SW,232,2.7,2.7,98,0.00,,,0.00,VWS V14.00,2013-05-23 09:11:00,
2013-05-23 05:17:00,54.0,53.4,29.57,SW,222,2.2,3.1,98,0.00,,,0.00,VWS V14.00,2013-05-23 09:17:00,
2013-05-23 05:22:00,53.8,53.2,29.54,SW,215,0.0,2.2,98,0.00,,,0.00,VWS V14.00,2013-05-23 09:22:00,
2013-05-23 05:27:00,53.8,53.2,29.54,WNW,285,2.2,2.2,98,0.00,,,0.00,VWS V14.00,2013-05-23 09:27:00,
2013-05-23 05:32:00,53.8,53.2,29.57,NW,314,0.0,0.0,98,0.00,,,0.00,VWS V14.00,2013-05-23 09:32:00,
2013-05-23 05:37:00,53.4,52.9,29.57,NW,320,0.0,0.0,98,0.00,,,0.00,VWS V14.00,2013-05-23 09:37:00,
2013-05-23 05:42:00,53.4,52.9,29.57,SW,223,3.1,3.1,98,0.00,,,0.00,VWS V14.00,2013-05-23 09:42:00,
2013-05-23 05:48:00,53.2,52.7,29.57,WNW,301,2.7,2.7,98,0.00,,,0.00,VWS V14.00,2013-05-23 09:48:00,
2013-05-23 05:54:00,53.1,52.5,29.57,West,260,2.7,2.7,98,0.00,,,0.00,VWS V14.00,2013-05-23 09:54:00,
2013-05-23 05:59:00,53.1,52.5,29.57,West,263,0.0,0.0,98,0.00,,,0.00,VWS V14.00,2013-05-23 09:59:00,
2013-05-23 06:04:00,52.9,52.3,29.57,SW,231,2.2,2.2,98,0.00,,,0.00,VWS V14.00,2013-05-23 10:04:00,
2013-05-23 06:10:00,52.7,52.2,29.57,WSW,250,0.0,2.7,98,0.00,,,0.00,VWS V14.00,2013-05-23 10:10:00,
2013-05-23 06:15:00,52.7,52.2,29.57,WSW,254,0.0,0.0,98,0.00,,,0.00,VWS V14.00,2013-05-23 10:15:00,
2013-05-23 06:21:00,52.7,52.2,29.57,WSW,256,0.0,0.0,98,0.00,,,0.00,VWS V14.00,2013-05-23 10:21:00,
2013-05-23 06:27:00,52.7,52.2,29.57,SW,233,0.0,0.0,98,0.00,,,0.00,VWS V14.00,2013-05-23 10:27:00,
2013-05-23 06:32:00,52.7,52.2,29.57,SW,219,3.6,3.6,98,0.00,,,0.00,VWS V14.00,2013-05-23 10:32:00,
2013-05-23 06:38:00,52.5,52.0,29.57,West,270,0.0,0.0,98,0.00,,,0.00,VWS V14.00,2013-05-23 10:38:00,
2013-05-23 06:43:00,52.5,52.0,29.57,SW,228,0.0,0.0,98,0.00,,,0.00,VWS V14.00,2013-05-23 10:43:00,
2013-05-23 06:48:00,52.5,52.0,29.60,SW,229,0.0,0.0,98,0.00,,,0.00,VWS V14.00,2013-05-23 10:48:00,
2013-05-23 06:53:00,52.5,52.0,29.60,West,265,3.1,3.1,98,0.00,,,0.00,VWS V14.00,2013-05-23 10:53:00,
2013-05-23 06:58:00,52.3,51.8,29.60,West,265,3.1,3.1,98,0.00,,,0.00,VWS V14.00,2013-05-23 10:58:00,
2013-05-23 07:04:00,52.2,51.6,29.60,WSW,241,0.0,0.0,98,0.00,,,0.00,VWS V14.00,2013-05-23 11:04:00,
2013-05-23 07:10:00,52.2,51.6,29.60,WSW,241,0.0,0.0,98,0.00,,,0.00,VWS V14.00,2013-05-23 11:10:00,
2013-05-23 07:16:00,52.0,51.4,29.60,WSW,241,0.0,0.0,98,0.00,,,0.00,VWS V14.00,2013-05-23 11:16:00,
2013-05-23 07:21:00,52.0,51.4,29.60,WSW,241,0.0,0.0,98,0.00,,,0.00,VWS V14.00,2013-05-23 11:21:00,
2013-05-23 07:27:00,51.8,51.3,29.60,WSW,241,0.0,0.0,98,0.00,,,0.00,VWS V14.00,2013-05-23 11:27:00,
2013-05-23 07:32:00,51.6,51.1,29.60,WSW,241,0.0,0.0,98,0.00,,,0.00,VWS V14.00,2013-05-23 11:32:00,
2013-05-23 07:37:00,51.4,50.9,29.60,WSW,241,0.0,0.0,98,0.00,,,0.00,VWS V14.00,2013-05-23 11:37:00,
2013-05-23 07:43:00,51.4,50.9,29.63,WSW,241,0.0,0.0,98,0.00,,,0.00,VWS V14.00,2013-05-23 11:43:00,
2013-05-23 07:48:00,51.4,50.9,29.63,WSW,241,0.0,0.0,98,0.00,,,0.00,VWS V14.00,2013-05-23 11:48:00,
2013-05-23 07:54:00,51.3,50.7,29.63,WSW,241,0.0,0.0,98,0.00,,,0.00,VWS V14.00,2013-05-23 11:54:00,
2013-05-23 07:59:00,51.3,50.7,29.63,WSW,241,0.0,0.0,98,0.00,,,0.00,VWS V14.00,2013-05-23 11:59:00,
2013-05-23 08:05:00,51.1,50.5,29.63,WSW,241,0.0,0.0,98,0.00,,,0.00,VWS V14.00,2013-05-23 12:05:00,
2013-05-23 08:11:00,51.1,50.5,29.63,WSW,241,0.0,0.0,98,0.00,,,0.00,VWS V14.00,2013-05-23 12:11:00,
2013-05-23 08:16:00,51.1,50.5,29.63,WSW,241,0.0,0.0,98,0.00,,,0.00,VWS V14.00,2013-05-23 12:16:00,
2013-05-23 08:22:00,51.1,50.5,29.63,WSW,253,0.0,0.0,98,0.00,,,0.00,VWS V14.00,2013-05-23 12:22:00,
2013-05-23 08:27:00,51.1,50.5,29.63,WSW,253,0.0,0.0,98,0.04,,,0.04,VWS V14.00,2013-05-23 12:27:00,
2013-05-23 08:33:00,51.1,50.5,29.63,WSW,255,0.0,0.0,98,0.04,,,0.04,VWS V14.00,2013-05-23 12:33:00,
2013-05-23 08:38:00,51.3,50.7,29.63,WSW,255,0.0,0.0,98,0.04,,,0.04,VWS V14.00,2013-05-23 12:38:00,
2013-05-23 08:44:00,51.3,50.7,29.63,WSW,255,0.0,0.0,98,0.04,,,0.04,VWS V14.00,2013-05-23 12:44:00,
2013-05-23 08:49:00,51.4,50.9,29.63,WSW,255,0.0,0.0,98,0.08,,,0.08,VWS V14.00,2013-05-23 12:49:00,
2013-05-23 08:54:00,51.4,50.9,29.63,WSW,255,0.0,0.0,98,0.08,,,0.08,VWS V14.00,2013-05-23 12:54:00,
2013-05-23 08:59:00,51.6,51.1,29.63,WSW,255,0.0,0.0,98,0.08,,,0.08,VWS V14.00,2013-05-23 12:59:00,
2013-05-23 09:04:00,51.6,51.1,29.63,WSW,255,0.0,0.0,98,0.12,,,0.12,VWS V14.00,2013-05-23 13:04:00,
2013-05-23 09:10:00,51.8,51.3,29.63,WSW,255,0.0,0.0,98,0.16,,,0.16,VWS V14.00,2013-05-23 13:10:00,
2013-05-23 09:16:00,51.8,51.3,29.63,WSW,255,0.0,0.0,98,0.16,,,0.16,VWS V14.00,2013-05-23 13:16:00,
2013-05-23 09:22:00,51.8,51.3,29.63,WSW,255,0.0,0.0,98,0.16,,,0.16,VWS V14.00,2013-05-23 13:22:00,
2013-05-23 09:27:00,52.3,51.8,29.63,WSW,255,0.0,0.0,98,0.12,,,0.16,VWS V14.00,2013-05-23 13:27:00,
2013-05-23 09:33:00,52.5,52.0,29.63,WSW,255,0.0,0.0,98,0.20,,,0.24,VWS V14.00,2013-05-23 13:33:00,
2013-05-23 09:39:00,52.7,52.2,29.66,WSW,255,0.0,0.0,98,0.20,,,0.24,VWS V14.00,2013-05-23 13:39:00,
2013-05-23 09:44:00,52.7,52.2,29.66,NE,37,3.1,3.1,98,0.20,,,0.24,VWS V14.00,2013-05-23 13:44:00,
2013-05-23 09:49:00,54.0,53.4,29.66,NE,37,3.1,3.1,98,0.16,,,0.24,VWS V14.00,2013-05-23 13:49:00,
2013-05-23 09:55:00,54.5,54.0,29.66,NNE,20,5.4,5.4,98,0.16,,,0.24,VWS V14.00,2013-05-23 13:55:00,
2013-05-23 10:00:00,54.7,54.1,29.66,NNE,17,6.3,6.3,98,0.16,,,0.24,VWS V14.00,2013-05-23 14:00:00,
2013-05-23 10:06:00,54.9,54.3,29.66,NNE,19,6.3,6.3,98,0.12,,,0.24,VWS V14.00,2013-05-23 14:06:00,
2013-05-23 10:12:00,55.0,54.5,29.66,NNE,19,5.4,5.4,98,0.08,,,0.24,VWS V14.00,2013-05-23 14:12:00,
2013-05-23 10:17:00,55.0,54.5,29.66,NNE,27,10.1,10.1,98,0.08,,,0.24,VWS V14.00,2013-05-23 14:17:00,
2013-05-23 10:23:00,55.2,54.7,29.66,NNE,27,10.1,10.1,98,0.08,,,0.24,VWS V14.00,2013-05-23 14:23:00,
2013-05-23 10:28:00,55.2,54.7,29.66,NNE,27,10.1,10.1,98,0.08,,,0.24,VWS V14.00,2013-05-23 14:28:00,
2013-05-23 10:33:00,55.2,54.7,29.66,NNE,31,4.0,10.1,98,0.00,,,0.24,VWS V14.00,2013-05-23 14:33:00,
2013-05-23 10:38:00,55.4,54.8,29.66,NNE,31,8.3,8.3,98,0.00,,,0.24,VWS V14.00,2013-05-23 14:38:00,
2013-05-23 10:44:00,55.4,54.8,29.69,NNE,31,8.3,8.3,98,0.00,,,0.24,VWS V14.00,2013-05-23 14:44:00,
2013-05-23 10:49:00,55.4,54.8,29.69,NNE,31,8.3,8.3,98,0.04,,,0.28,VWS V14.00,2013-05-23 14:49:00,
2013-05-23 10:54:00,55.4,54.8,29.69,NNE,26,8.7,8.7,98,0.04,,,0.28,VWS V14.00,2013-05-23 14:54:00,
2013-05-23 11:00:00,55.4,54.8,29.69,NNE,30,10.5,10.5,98,0.04,,,0.28,VWS V14.00,2013-05-23 15:00:00,
2013-05-23 11:05:00,55.4,54.8,29.69,NNE,25,12.8,12.8,98,0.04,,,0.28,VWS V14.00,2013-05-23 15:05:00,
2013-05-23 11:11:00,55.4,54.8,29.69,North,357,5.8,5.8,98,0.04,,,0.28,VWS V14.00,2013-05-23 15:11:00,
2013-05-23 11:16:00,55.4,54.8,29.69,North,10,9.2,10.5,98,0.04,,,0.28,VWS V14.00,2013-05-23 15:16:00,
2013-05-23 11:21:00,55.4,54.8,29.69,NNE,31,10.1,10.1,98,0.04,,,0.28,VWS V14.00,2013-05-23 15:21:00,
2013-05-23 11:26:00,52.7,52.2,29.72,North,11,5.8,10.1,98,0.04,,,0.28,VWS V14.00,2013-05-23 15:26:00,
2013-05-23 11:31:00,52.7,52.2,29.72,NE,49,6.3,6.3,98,0.04,,,0.28,VWS V14.00,2013-05-23 15:31:00,
2013-05-23 11:37:00,52.3,51.8,29.72,NNE,15,8.1,8.7,98,0.04,,,0.28,VWS V14.00,2013-05-23 15:37:00,
2013-05-23 11:43:00,52.3,51.8,29.72,NNE,22,6.3,6.3,98,0.04,,,0.28,VWS V14.00,2013-05-23 15:43:00,
2013-05-23 11:48:00,52.3,51.8,29.72,NE,38,5.4,5.8,98,0.00,,,0.28,VWS V14.00,2013-05-23 15:48:00,
2013-05-23 11:53:00,52.3,51.8,29.75,NNE,26,8.1,8.1,98,0.00,,,0.28,VWS V14.00,2013-05-23 15:53:00,
2013-05-23 11:58:00,52.0,51.4,29.75,NNE,21,10.1,10.1,98,0.00,,,0.28,VWS V14.00,2013-05-23 15:58:00,
2013-05-23 12:04:00,51.8,51.3,29.75,NNE,32,15.4,15.4,98,0.00,,,0.28,VWS V14.00,2013-05-23 16:04:00,
2013-05-23 12:09:00,51.8,51.3,29.75,NNE,21,8.3,8.3,98,0.00,,,0.28,VWS V14.00,2013-05-23 16:09:00,
2013-05-23 12:15:00,51.8,51.3,29.75,North,357,8.3,8.7,98,0.00,,,0.28,VWS V14.00,2013-05-23 16:15:00,
2013-05-23 12:20:00,52.0,51.4,29.75,NE,42,5.8,5.8,98,0.00,,,0.28,VWS V14.00,2013-05-23 16:20:00,
2013-05-23 12:25:00,52.0,51.4,29.75,NNE,12,5.4,5.4,98,0.00,,,0.28,VWS V14.00,2013-05-23 16:25:00,
2013-05-23 12:31:00,52.0,51.4,29.78,NE,36,6.7,6.7,98,0.00,,,0.28,VWS V14.00,2013-05-23 16:31:00,
2013-05-23 12:36:00,52.0,51.4,29.78,NNE,14,7.6,7.6,98,0.00,,,0.28,VWS V14.00,2013-05-23 16:36:00,
2013-05-23 12:42:00,52.2,51.6,29.78,NE,46,5.4,6.3,98,0.00,,,0.28,VWS V14.00,2013-05-23 16:42:00,
2013-05-23 12:47:00,52.2,51.6,29.78,ENE,59,6.3,6.3,98,0.00,,,0.28,VWS V14.00,2013-05-23 16:47:00,
2013-05-23 12:53:00,52.3,51.8,29.78,NE,44,4.0,8.3,98,0.04,,,0.31,VWS V14.00,2013-05-23 16:53:00,
2013-05-23 12:58:00,52.5,52.0,29.78,NE,48,10.1,10.1,98,0.04,,,0.31,VWS V14.00,2013-05-23 16:58:00,
2013-05-23 13:04:00,52.5,52.0,29.78,North,11,8.3,10.5,98,0.04,,,0.31,VWS V14.00,2013-05-23 17:04:00,
2013-05-23 13:09:00,52.5,52.0,29.78,NNE,20,5.8,5.8,98,0.04,,,0.31,VWS V14.00,2013-05-23 17:09:00,
2013-05-23 13:14:00,52.9,52.3,29.78,North,357,6.3,6.7,98,0.04,,,0.31,VWS V14.00,2013-05-23 17:14:00,
2013-05-23 13:20:00,52.7,52.2,29.78,North,1,8.1,8.1,98,0.04,,,0.31,VWS V14.00,2013-05-23 17:20:00,
2013-05-23 13:25:00,52.3,51.8,29.78,North,357,6.3,6.3,98,0.04,,,0.31,VWS V14.00,2013-05-23 17:25:00,
2013-05-23 13:30:00,52.5,52.0,29.78,NE,36,4.0,4.0,98,0.04,,,0.31,VWS V14.00,2013-05-23 17:30:00,
2013-05-23 13:35:00,52.5,52.0,29.78,NE,38,5.8,8.7,98,0.04,,,0.31,VWS V14.00,2013-05-23 17:35:00,
2013-05-23 13:41:00,52.5,52.0,29.78,NW,320,7.6,7.6,98,0.04,,,0.31,VWS V14.00,2013-05-23 17:41:00,
2013-05-23 13:46:00,52.5,52.0,29.81,ENE,78,8.1,8.1,98,0.04,,,0.31,VWS V14.00,2013-05-23 17:46:00,
2013-05-23 13:51:00,52.9,52.3,29.81,ENE,74,6.3,6.3,98,0.00,,,0.31,VWS V14.00,2013-05-23 17:51:00,
2013-05-23 13:56:00,52.9,52.3,29.81,NNE,22,5.4,5.4,98,0.00,,,0.31,VWS V14.00,2013-05-23 17:56:00,
2013-05-23 14:01:00,53.1,52.5,29.81,North,11,2.7,6.3,98,0.00,,,0.31,VWS V14.00,2013-05-23 18:01:00,
2013-05-23 14:07:00,53.1,52.5,29.78,North,1,10.1,10.1,98,0.00,,,0.31,VWS V14.00,2013-05-23 18:07:00,
2013-05-23 14:13:00,53.1,52.5,29.78,NNE,13,5.8,6.3,98,0.00,,,0.31,VWS V14.00,2013-05-23 18:13:00,
2013-05-23 14:18:00,53.2,52.7,29.78,NNE,18,5.4,5.4,98,0.00,,,0.31,VWS V14.00,2013-05-23 18:18:00,
2013-05-23 14:24:00,53.2,52.7,29.81,NNE,24,4.0,4.0,98,0.00,,,0.31,VWS V14.00,2013-05-23 18:24:00,
2013-05-23 14:30:00,53.4,52.9,29.81,North,2,5.8,5.8,98,0.00,,,0.31,VWS V14.00,2013-05-23 18:30:00,
2013-05-23 14:35:00,53.4,52.9,29.81,NNE,30,6.3,6.3,98,0.00,,,0.31,VWS V14.00,2013-05-23 18:35:00,
2013-05-23 14:41:00,53.4,52.9,29.81,NNE,27,6.7,6.7,98,0.00,,,0.31,VWS V14.00,2013-05-23 18:41:00,
2013-05-23 14:46:00,53.2,52.7,29.81,North,350,2.2,2.2,98,0.00,,,0.31,VWS V14.00,2013-05-23 18:46:00,
2013-05-23 14:51:00,53.1,52.5,29.81,NNE,21,6.3,6.3,98,0.00,,,0.31,VWS V14.00,2013-05-23 18:51:00,
2013-05-23 14:56:00,52.9,52.3,29.81,WNW,296,5.4,8.3,98,0.00,,,0.31,VWS V14.00,2013-05-23 18:56:00,
2013-05-23 15:01:00,52.9,52.3,29.84,NNE,13,5.4,6.3,98,0.00,,,0.31,VWS V14.00,2013-05-23 19:01:00,
2013-05-23 15:06:00,53.1,52.5,29.84,NNE,15,6.3,6.3,98,0.00,,,0.31,VWS V14.00,2013-05-23 19:06:00,
2013-05-23 15:11:00,53.1,52.5,29.84,NNE,16,8.3,8.3,98,0.00,,,0.31,VWS V14.00,2013-05-23 19:11:00,
2013-05-23 15:17:00,53.2,52.7,29.84,NNE,26,8.3,8.3,98,0.00,,,0.31,VWS V14.00,2013-05-23 19:17:00,
2013-05-23 15:22:00,53.2,52.7,29.84,NNE,22,5.8,5.8,98,0.00,,,0.31,VWS V14.00,2013-05-23 19:22:00,
2013-05-23 15:27:00,53.4,52.9,29.84,North,8,5.8,5.8,98,0.00,,,0.31,VWS V14.00,2013-05-23 19:27:00,
2013-05-23 15:33:00,53.4,52.9,29.84,NNE,24,5.4,8.1,98,0.00,,,0.31,VWS V14.00,2013-05-23 19:33:00,
2013-05-23 15:38:00,53.4,52.9,29.84,NE,36,10.5,10.5,98,0.00,,,0.31,VWS V14.00,2013-05-23 19:38:00,
2013-05-23 15:44:00,52.9,52.3,29.84,NNE,22,6.3,13.2,98,0.00,,,0.31,VWS V14.00,2013-05-23 19:44:00,
2013-05-23 15:49:00,52.3,51.5,29.87,NNE,29,12.3,12.3,97,0.00,,,0.31,VWS V14.00,2013-05-23 19:49:00,
2013-05-23 15:55:00,52.2,51.1,29.87,North,3,5.4,5.4,96,0.00,,,0.31,VWS V14.00,2013-05-23 19:55:00,
2013-05-23 16:00:00,52.3,51.2,29.87,West,275,4.9,11.4,96,0.00,,,0.31,VWS V14.00,2013-05-23 20:00:00,
2013-05-23 16:06:00,52.3,51.0,29.87,NNW,340,5.4,8.1,95,0.00,,,0.31,VWS V14.00,2013-05-23 20:06:00,
2013-05-23 16:12:00,52.3,51.0,29.87,North,353,5.8,7.6,95,0.00,,,0.31,VWS V14.00,2013-05-23 20:12:00,
2013-05-23 16:17:00,52.3,51.0,29.87,North,4,8.7,8.7,95,0.00,,,0.31,VWS V14.00,2013-05-23 20:17:00,
2013-05-23 16:22:00,51.4,49.5,29.87,North,8,8.3,8.3,93,0.00,,,0.31,VWS V14.00,2013-05-23 20:22:00,
2013-05-23 16:27:00,51.3,49.0,29.87,North,1,13.2,13.2,92,0.00,,,0.31,VWS V14.00,2013-05-23 20:27:00,
2013-05-23 16:33:00,51.1,48.8,29.87,North,4,7.6,8.3,92,0.00,,,0.31,VWS V14.00,2013-05-23 20:33:00,
2013-05-23 16:38:00,51.1,48.8,29.87,WSW,252,2.7,8.7,92,0.00,,,0.31,VWS V14.00,2013-05-23 20:38:00,
2013-05-23 16:44:00,51.3,49.0,29.87,NNE,26,8.7,8.7,92,0.00,,,0.31,VWS V14.00,2013-05-23 20:44:00,
2013-05-23 16:49:00,51.3,49.0,29.87,North,357,8.3,8.3,92,0.00,,,0.31,VWS V14.00,2013-05-23 20:49:00,
2013-05-23 16:54:00,51.1,48.8,29.87,WNW,300,2.2,7.6,92,0.00,,,0.31,VWS V14.00,2013-05-23 20:54:00,
2013-05-23 17:00:00,51.1,48.8,29.90,NNW,342,4.9,4.9,92,0.00,,,0.31,VWS V14.00,2013-05-23 21:00:00,
2013-05-23 17:05:00,50.4,48.1,29.90,North,9,3.6,6.3,92,0.00,,,0.31,VWS V14.00,2013-05-23 21:05:00,
2013-05-23 17:10:00,50.2,48.0,29.90,NE,36,8.3,10.5,92,0.00,,,0.31,VWS V14.00,2013-05-23 21:10:00,
2013-05-23 17:16:00,50.2,48.0,29.90,NNE,18,6.3,8.3,92,0.00,,,0.31,VWS V14.00,2013-05-23 21:16:00,
2013-05-23 17:22:00,49.8,47.3,29.90,NNE,14,8.1,8.1,91,0.00,,,0.31,VWS V14.00,2013-05-23 21:22:00,
2013-05-23 17:28:00,49.8,47.3,29.90,NNE,14,8.1,8.1,91,0.00,,,0.31,VWS V14.00,2013-05-23 21:28:00,
2013-05-23 17:33:00,49.8,47.3,29.90,NNE,24,5.4,8.3,91,0.00,,,0.31,VWS V14.00,2013-05-23 21:33:00,
2013-05-23 17:39:00,49.8,47.3,29.90,NNE,33,8.7,8.7,91,0.00,,,0.31,VWS V14.00,2013-05-23 21:39:00,
2013-05-23 17:44:00,49.8,47.3,29.90,NNE,12,4.0,4.0,91,0.00,,,0.31,VWS V14.00,2013-05-23 21:44:00,
2013-05-23 17:49:00,49.8,47.3,29.90,NNE,18,8.7,8.7,91,0.00,,,0.31,VWS V14.00,2013-05-23 21:49:00,
2013-05-23 17:55:00,49.8,47.3,29.90,North,353,5.8,5.8,91,0.00,,,0.31,VWS V14.00,2013-05-23 21:55:00,
2013-05-23 18:01:00,50.2,46.8,29.93,North,349,3.1,3.1,88,0.00,,,0.31,VWS V14.00,2013-05-23 22:01:00,
2013-05-23 18:07:00,50.2,46.8,29.93,NNE,14,5.8,5.8,88,0.00,,,0.31,VWS V14.00,2013-05-23 22:07:00,
2013-05-23 18:12:00,50.2,46.5,29.93,North,357,6.3,7.6,87,0.00,,,0.31,VWS V14.00,2013-05-23 22:12:00,
2013-05-23 18:18:00,50.2,46.8,29.93,North,7,3.1,3.1,88,0.00,,,0.31,VWS V14.00,2013-05-23 22:18:00,
2013-05-23 18:23:00,49.8,46.1,29.93,NNE,25,8.1,8.1,87,0.00,,,0.31,VWS V14.00,2013-05-23 22:23:00,
2013-05-23 18:28:00,49.8,46.1,29.93,North,2,6.3,6.3,87,0.00,,,0.31,VWS V14.00,2013-05-23 22:28:00,
2013-05-23 18:33:00,49.6,45.6,29.93,North,4,5.4,8.1,86,0.00,,,0.31,VWS V14.00,2013-05-23 22:33:00,
2013-05-23 18:39:00,49.5,45.5,29.93,North,2,5.4,5.4,86,0.00,,,0.31,VWS V14.00,2013-05-23 22:39:00,
2013-05-23 18:44:00,49.5,45.5,29.93,NNE,23,6.3,6.3,86,0.00,,,0.31,VWS V14.00,2013-05-23 22:44:00,
2013-05-23 18:50:00,49.3,45.6,29.93,NNE,19,6.3,6.3,87,0.00,,,0.31,VWS V14.00,2013-05-23 22:50:00,
2013-05-23 18:56:00,49.1,45.1,29.93,NNE,20,5.8,10.5,86,0.00,,,0.31,VWS V14.00,2013-05-23 22:56:00,
2013-05-23 19:01:00,49.1,45.1,29.96,North,349,5.4,5.4,86,0.00,,,0.31,VWS V14.00,2013-05-23 23:01:00,
2013-05-23 19:07:00,48.7,44.4,29.96,NNE,14,7.6,7.6,85,0.00,,,0.31,VWS V14.00,2013-05-23 23:07:00,
2013-05-23 19:13:00,48.7,44.4,29.93,NNE,27,6.7,6.7,85,0.00,,,0.31,VWS V14.00,2013-05-23 23:13:00,
2013-05-23 19:18:00,49.1,44.8,29.93,North,7,2.7,6.7,85,0.00,,,0.31,VWS V14.00,2013-05-23 23:18:00,
2013-05-23 19:23:00,49.5,45.2,29.93,NNE,12,2.2,5.4,85,0.00,,,0.31,VWS V14.00,2013-05-23 23:23:00,
2013-05-23 19:28:00,49.5,45.2,29.96,NNE,17,5.8,5.8,85,0.00,,,0.31,VWS V14.00,2013-05-23 23:28:00,
2013-05-23 19:33:00,51.1,46.4,29.96,North,357,5.4,5.4,84,0.00,,,0.31,VWS V14.00,2013-05-23 23:33:00,
2013-05-23 19:38:00,51.4,46.8,29.96,North,353,4.0,4.0,84,0.00,,,0.31,VWS V14.00,2013-05-23 23:38:00,
2013-05-23 19:44:00,51.8,46.5,29.96,NNE,19,4.0,4.0,82,0.00,,,0.31,VWS V14.00,2013-05-23 23:44:00,
2013-05-23 19:49:00,52.0,46.0,29.96,NNE,31,5.4,6.3,80,0.00,,,0.31,VWS V14.00,2013-05-23 23:49:00,
2013-05-23 19:55:00,52.0,46.0,29.96,NE,34,6.3,6.3,80,0.00,,,0.31,VWS V14.00,2013-05-23 23:55:00,
2013-05-23 20:00:00,52.2,45.5,29.96,NNE,18,7.6,7.6,78,0.00,,,0.31,VWS V14.00,2013-05-24 00:00:00,
2013-05-23 20:06:00,52.0,45.0,29.96,NE,46,3.6,3.6,77,0.00,,,0.31,VWS V14.00,2013-05-24 00:06:00,
2013-05-23 20:11:00,52.0,45.3,29.96,North,6,3.1,3.1,78,0.00,,,0.31,VWS V14.00,2013-05-24 00:11:00,
2013-05-23 20:17:00,51.8,45.2,29.96,North,10,3.6,3.6,78,0.00,,,0.31,VWS V14.00,2013-05-24 00:17:00,
2013-05-23 20:23:00,51.6,45.0,29.96,NNE,33,3.1,3.1,78,0.00,,,0.31,VWS V14.00,2013-05-24 00:23:00,
2013-05-23 20:28:00,51.6,45.0,29.96,NNE,17,4.0,4.0,78,0.00,,,0.31,VWS V14.00,2013-05-24 00:28:00,
2013-05-23 20:34:00,51.1,44.8,29.96,NNE,23,3.6,3.6,79,0.00,,,0.31,VWS V14.00,2013-05-24 00:34:00,
2013-05-23 20:39:00,50.7,44.5,29.96,NE,34,3.1,3.1,79,0.00,,,0.31,VWS V14.00,2013-05-24 00:39:00,
2013-05-23 20:45:00,50.4,44.1,29.98,NNE,22,3.6,3.6,79,0.00,,,0.31,VWS V14.00,2013-05-24 00:45:00,
2013-05-23 20:51:00,49.8,43.6,29.98,NNE,24,2.7,2.7,79,0.00,,,0.31,VWS V14.00,2013-05-24 00:51:00,
2013-05-23 20:56:00,49.5,43.2,29.98,North,11,3.1,3.1,79,0.00,,,0.31,VWS V14.00,2013-05-24 00:56:00,
2013-05-23 21:02:00,49.1,43.2,29.98,North,11,2.7,2.7,80,0.00,,,0.31,VWS V14.00,2013-05-24 01:02:00,
2013-05-23 21:07:00,48.9,43.3,29.98,North,11,2.7,2.7,81,0.00,,,0.31,VWS V14.00,2013-05-24 01:07:00,
2013-05-23 21:13:00,48.9,43.3,29.98,NNE,30,0.0,0.0,81,0.00,,,0.31,VWS V14.00,2013-05-24 01:13:00,
2013-05-23 21:18:00,48.6,43.3,29.98,NNE,30,0.0,0.0,82,0.00,,,0.31,VWS V14.00,2013-05-24 01:18:00,
2013-05-23 21:23:00,48.2,43.3,29.98,NNE,30,2.2,2.2,83,0.00,,,0.31,VWS V14.00,2013-05-24 01:23:00,
2013-05-23 21:28:00,48.0,43.1,29.98,NNE,30,0.0,0.0,83,0.00,,,0.31,VWS V14.00,2013-05-24 01:28:00,
2013-05-23 21:33:00,47.8,43.2,29.98,NNE,30,0.0,0.0,84,0.00,,,0.31,VWS V14.00,2013-05-24 01:33:00,
2013-05-23 21:38:00,47.8,43.2,29.98,NNE,30,2.7,2.7,84,0.00,,,0.31,VWS V14.00,2013-05-24 01:38:00,
2013-05-23 21:43:00,47.3,43.0,29.98,NNE,30,2.7,2.7,85,0.00,,,0.31,VWS V14.00,2013-05-24 01:43:00,
2013-05-23 21:48:00,47.1,42.8,29.98,NNE,30,0.0,0.0,85,0.00,,,0.31,VWS V14.00,2013-05-24 01:48:00,
2013-05-23 21:54:00,46.9,42.7,29.98,West,260,2.7,2.7,85,0.00,,,0.31,VWS V14.00,2013-05-24 01:54:00,
2013-05-23 22:00:00,46.4,42.5,30.01,North,4,4.0,4.0,86,0.00,,,0.31,VWS V14.00,2013-05-24 02:00:00,
2013-05-23 22:05:00,46.2,42.3,30.01,NNE,15,4.0,4.0,86,0.00,,,0.31,VWS V14.00,2013-05-24 02:05:00,
2013-05-23 22:10:00,46.0,42.1,30.01,North,5,3.6,3.6,86,0.00,,,0.31,VWS V14.00,2013-05-24 02:10:00,
2013-05-23 22:15:00,46.0,41.8,30.01,NNE,22,6.3,6.3,85,0.00,,,0.31,VWS V14.00,2013-05-24 02:15:00,
2013-05-23 22:20:00,45.9,41.6,30.01,NNE,19,5.4,5.4,85,0.00,,,0.31,VWS V14.00,2013-05-24 02:20:00,
2013-05-23 22:26:00,45.5,40.7,30.01,North,9,4.9,4.9,83,0.00,,,0.31,VWS V14.00,2013-05-24 02:26:00,
2013-05-23 22:31:00,45.3,40.2,30.01,NNE,21,6.3,6.3,82,0.00,,,0.31,VWS V14.00,2013-05-24 02:31:00,
2013-05-23 22:37:00,45.3,39.8,30.01,NNE,14,4.0,4.0,81,0.00,,,0.31,VWS V14.00,2013-05-24 02:37:00,
2013-05-23 22:43:00,45.0,39.2,30.01,NNW,334,3.1,3.1,80,0.00,,,0.31,VWS V14.00,2013-05-24 02:43:00,
2013-05-23 22:48:00,44.8,38.3,30.01,North,4,5.8,5.8,78,0.00,,,0.31,VWS V14.00,2013-05-24 02:48:00,
2013-05-23 22:54:00,44.6,37.8,30.04,NNE,16,6.3,8.1,77,0.00,,,0.31,VWS V14.00,2013-05-24 02:54:00,
2013-05-23 22:59:00,44.2,37.5,30.04,NNE,33,6.7,6.7,77,0.00,,,0.31,VWS V14.00,2013-05-24 02:59:00,
2013-05-23 23:05:00,44.1,37.3,30.04,NE,38,5.4,5.4,77,0.00,,,0.31,VWS V14.00,2013-05-24 03:05:00,
2013-05-23 23:10:00,44.1,37.0,30.04,NNE,22,6.3,6.3,76,0.00,,,0.31,VWS V14.00,2013-05-24 03:10:00,
2013-05-23 23:16:00,43.7,36.6,30.04,North,357,8.7,8.7,76,0.00,,,0.31,VWS V14.00,2013-05-24 03:16:00,
2013-05-23 23:21:00,43.7,36.6,30.04,North,0,4.0,4.0,76,0.00,,,0.31,VWS V14.00,2013-05-24 03:21:00,
2013-05-23 23:27:00,43.5,36.5,30.04,North,353,7.6,7.6,76,0.00,,,0.31,VWS V14.00,2013-05-24 03:27:00,
2013-05-23 23:32:00,43.3,36.3,30.04,NNW,348,6.3,6.3,76,0.00,,,0.31,VWS V14.00,2013-05-24 03:32:00,
2013-05-23 23:37:00,43.3,36.3,30.04,NNE,14,5.8,5.8,76,0.00,,,0.31,VWS V14.00,2013-05-24 03:37:00,
2013-05-23 23:42:00,43.0,35.6,30.04,North,353,8.3,8.3,75,0.00,,,0.31,VWS V14.00,2013-05-24 03:42:00,
2013-05-23 23:47:00,43.0,36.0,30.04,NNE,27,5.8,5.8,76,0.00,,,0.31,VWS V14.00,2013-05-24 03:47:00,
2013-05-23 23:52:00,42.8,35.8,30.04,North,8,4.9,5.4,76,0.00,,,0.31,VWS V14.00,2013-05-24 03:52:00,
2013-05-23 23:58:00,42.8,35.8,30.04,NNE,23,3.1,3.6,76,0.00,,,0.00,VWS V14.00,2013-05-24 03:58:00,